RAMEN44 YSNW-YSNW

Flight info

Callsign RAMEN44
Flight time 0h 39m
Altitude 2000
Route YSNR--VFR
Aircraft H60/L-G/C

Departure

Time 2026-04-16 10:53
Airport Naval Air Station Nowra - HMAS Albatross (YSNW)

Arrival

Time 2026-04-16 11:32
Airport Naval Air Station Nowra - HMAS Albatross (YSNW)
Time Latitude Longitude Altitude Speed Heading
2026-04-16 10:46 -34.94554 150.54623 368 ft 0 kts 154°
2026-04-16 10:53 -34.94555 150.54613 404 ft 8 kts 160°
2026-04-16 10:53 -34.94708 150.54670 502 ft 47 kts 156°
2026-04-16 10:53 -34.95058 150.55049 808 ft 89 kts 147°
2026-04-16 10:53 -34.95257 150.55900 1183 ft 114 kts 105°
2026-04-16 10:54 -34.95442 150.56844 1677 ft 114 kts 103°
2026-04-16 10:54 -34.95631 150.57806 1468 ft 118 kts 102°
2026-04-16 10:54 -34.95831 150.58805 1385 ft 122 kts 102°
2026-04-16 10:55 -34.96263 150.60890 1390 ft 123 kts 102°
2026-04-16 10:55 -34.96470 150.61892 1394 ft 121 kts 102°
2026-04-16 10:55 -34.96585 150.62870 1393 ft 111 kts 90°
2026-04-16 10:55 -34.96469 150.63774 1398 ft 114 kts 82°
2026-04-16 10:56 -34.96378 150.64790 1383 ft 125 kts 82°
2026-04-16 10:56 -34.96125 150.65598 1392 ft 88 kts 59°
2026-04-16 10:56 -34.95649 150.66119 1381 ft 109 kts 51°
2026-04-16 10:56 -34.95155 150.66877 1394 ft 113 kts 51°
2026-04-16 10:57 -34.94659 150.67650 1385 ft 115 kts 51°
2026-04-16 10:57 -34.94164 150.68419 1393 ft 115 kts 51°
2026-04-16 10:57 -34.93671 150.69182 1398 ft 115 kts 51°
2026-04-16 10:57 -34.93173 150.69948 1401 ft 115 kts 51°
2026-04-16 10:58 -34.92617 150.70601 1402 ft 107 kts 38°
2026-04-16 10:58 -34.91966 150.70875 1415 ft 93 kts 24°
2026-04-16 10:58 -34.91350 150.71177 1379 ft 110 kts 24°
2026-04-16 10:58 -34.90604 150.71518 1375 ft 118 kts 22°
2026-04-16 10:59 -34.89814 150.72007 1429 ft 132 kts 22°
2026-04-16 10:59 -34.89042 150.72567 1427 ft 122 kts 22°
2026-04-16 10:59 -34.88349 150.73094 1432 ft 114 kts 22°
2026-04-16 10:59 -34.87700 150.73603 1433 ft 109 kts 22°
2026-04-16 11:00 -34.87066 150.74089 1443 ft 107 kts 22°
2026-04-16 11:00 -34.86434 150.74563 1434 ft 106 kts 22°
2026-04-16 11:00 -34.85821 150.75058 1435 ft 112 kts 22°
2026-04-16 11:00 -34.85026 150.75516 1422 ft 138 kts 13°
2026-04-16 11:01 -34.84127 150.75864 1430 ft 125 kts 11°
2026-04-16 11:01 -34.83372 150.76186 1434 ft 107 kts 11°
2026-04-16 11:01 -34.82700 150.76484 1438 ft 99 kts 11°
2026-04-16 11:01 -34.82074 150.76772 1441 ft 94 kts 11°
2026-04-16 11:02 -34.81474 150.77041 1443 ft 91 kts 11°
2026-04-16 11:02 -34.80886 150.77302 1441 ft 89 kts 11°
2026-04-16 11:02 -34.80309 150.77568 1439 ft 88 kts 11°
2026-04-16 11:02 -34.79733 150.77833 1437 ft 88 kts 11°
2026-04-16 11:03 -34.79156 150.78096 1442 ft 90 kts 11°
2026-04-16 11:03 -34.78570 150.78369 1438 ft 90 kts 11°
2026-04-16 11:03 -34.77409 150.78892 1443 ft 89 kts 11°
2026-04-16 11:04 -34.76830 150.79178 1444 ft 89 kts 14°
2026-04-16 11:04 -34.76223 150.79530 1425 ft 119 kts 16°
2026-04-16 11:04 -34.75386 150.79951 1436 ft 127 kts 16°
2026-04-16 11:04 -34.74609 150.80361 1432 ft 117 kts 17°
2026-04-16 11:05 -34.73835 150.80761 1421 ft 134 kts 17°
2026-04-16 11:05 -34.73009 150.81167 1435 ft 126 kts 17°
2026-04-16 11:05 -34.72202 150.81555 1433 ft 126 kts 17°
2026-04-16 11:05 -34.71409 150.81930 1439 ft 125 kts 17°
2026-04-16 11:06 -34.70549 150.82324 1435 ft 131 kts 16°
2026-04-16 11:06 -34.69718 150.82723 1440 ft 126 kts 17°
2026-04-16 11:06 -34.68891 150.83105 1440 ft 127 kts 17°
2026-04-16 11:06 -34.68058 150.83496 1441 ft 129 kts 16°
2026-04-16 11:07 -34.67229 150.83880 1440 ft 126 kts 17°
2026-04-16 11:07 -34.66401 150.84256 1445 ft 126 kts 17°
2026-04-16 11:07 -34.65577 150.84644 1438 ft 126 kts 16°
2026-04-16 11:07 -34.64761 150.85042 1441 ft 127 kts 17°
2026-04-16 11:08 -34.63947 150.85437 1445 ft 125 kts 17°
2026-04-16 11:08 -34.63124 150.85840 1461 ft 131 kts 17°
2026-04-16 11:08 -34.62269 150.86249 1174 ft 127 kts 18°
2026-04-16 11:08 -34.61549 150.86580 1226 ft 95 kts 15°
2026-04-16 11:09 -34.61007 150.86778 1341 ft 72 kts 12°
2026-04-16 11:09 -34.60532 150.86937 1376 ft 73 kts 10°
2026-04-16 11:09 -34.60027 150.87108 1497 ft 80 kts 10°
2026-04-16 11:09 -34.59451 150.87301 1715 ft 91 kts
2026-04-16 11:10 -34.58830 150.87472 2054 ft 91 kts
2026-04-16 11:10 -34.58248 150.87307 2091 ft 88 kts 333°
2026-04-16 11:10 -34.57911 150.86687 1966 ft 92 kts 293°
2026-04-16 11:10 -34.57837 150.85939 1459 ft 85 kts 274°
2026-04-16 11:11 -34.57857 150.85267 1272 ft 76 kts 270°
2026-04-16 11:11 -34.57842 150.84641 1303 ft 75 kts 275°
2026-04-16 11:11 -34.57821 150.84000 1315 ft 80 kts 274°
2026-04-16 11:11 -34.57811 150.83305 1243 ft 82 kts 274°
2026-04-16 11:12 -34.57611 150.82633 1016 ft 97 kts 297°
2026-04-16 11:12 -34.57164 150.81953 663 ft 100 kts 308°
2026-04-16 11:12 -34.56830 150.81317 469 ft 79 kts 304°
2026-04-16 11:12 -34.56617 150.80739 298 ft 73 kts 299°
2026-04-16 11:13 -34.56450 150.80168 174 ft 70 kts 294°
2026-04-16 11:13 -34.56345 150.79648 90 ft 54 kts 290°
2026-04-16 11:13 -34.56307 150.79277 51 ft 33 kts 288°
2026-04-16 11:13 -34.56293 150.79061 50 ft 21 kts 291°
2026-04-16 11:14 -34.56290 150.78923 48 ft 11 kts 337°
2026-04-16 11:14 -34.56226 150.78897 46 ft 17 kts 13°
2026-04-16 11:14 -34.56154 150.78929 42 ft 12 kts 13°
2026-04-16 11:14 -34.56141 150.78929 33 ft 0 kts 13°
2026-04-16 11:16 -34.56126 150.78943 37 ft 7 kts 346°
2026-04-16 11:16 -34.56075 150.78953 40 ft 6 kts 257°
2026-04-16 11:17 -34.56086 150.78906 47 ft 14 kts 196°
2026-04-16 11:17 -34.56318 150.78873 137 ft 58 kts 201°
2026-04-16 11:17 -34.56907 150.78834 491 ft 105 kts 190°
2026-04-16 11:17 -34.57711 150.78998 868 ft 127 kts 172°
2026-04-16 11:18 -34.58625 150.79342 1058 ft 147 kts 163°
2026-04-16 11:18 -34.59596 150.79841 1044 ft 155 kts 160°
2026-04-16 11:18 -34.60568 150.80361 1123 ft 148 kts 159°
2026-04-16 11:18 -34.61470 150.80838 1462 ft 136 kts 164°
2026-04-16 11:19 -34.62303 150.81215 2071 ft 126 kts 167°
2026-04-16 11:19 -34.63151 150.81607 2087 ft 132 kts 169°
2026-04-16 11:19 -34.64007 150.81715 2091 ft 121 kts 188°
2026-04-16 11:19 -34.64827 150.81444 2087 ft 118 kts 205°
2026-04-16 11:20 -34.65338 150.81264 2089 ft 115 kts 205°
2026-04-16 11:20 -34.66170 150.80965 2073 ft 132 kts 205°
2026-04-16 11:20 -34.67070 150.80590 2072 ft 139 kts 208°
2026-04-16 11:20 -34.67880 150.80000 2087 ft 133 kts 221°
2026-04-16 11:21 -34.68567 150.79394 2103 ft 110 kts 222°
2026-04-16 11:21 -34.69173 150.78858 2098 ft 109 kts 222°
2026-04-16 11:21 -34.69806 150.78323 2090 ft 113 kts 222°
2026-04-16 11:21 -34.70468 150.77784 2085 ft 116 kts 222°
2026-04-16 11:22 -34.71104 150.77251 2095 ft 104 kts 222°
2026-04-16 11:22 -34.71733 150.76732 2086 ft 109 kts 222°
2026-04-16 11:22 -34.72381 150.76202 2085 ft 114 kts 222°
2026-04-16 11:22 -34.73030 150.75639 2066 ft 115 kts 222°
2026-04-16 11:23 -34.73683 150.75074 1808 ft 115 kts 222°
2026-04-16 11:23 -34.74331 150.74521 1538 ft 108 kts 222°
2026-04-16 11:23 -34.74911 150.74065 1364 ft 92 kts 222°
2026-04-16 11:23 -34.75442 150.73526 1120 ft 118 kts 230°
2026-04-16 11:24 -34.76030 150.72820 1113 ft 118 kts 230°
2026-04-16 11:24 -34.76602 150.72103 1124 ft 115 kts 230°
2026-04-16 11:24 -34.77189 150.71406 1119 ft 121 kts 230°
2026-04-16 11:24 -34.77792 150.70705 1117 ft 120 kts 230°
2026-04-16 11:25 -34.78347 150.69938 1119 ft 119 kts 239°
2026-04-16 11:25 -34.78854 150.69101 1109 ft 135 kts 238°
2026-04-16 11:25 -34.79440 150.68135 1113 ft 146 kts 238°
2026-04-16 11:25 -34.79992 150.67245 1132 ft 116 kts 238°
2026-04-16 11:26 -34.80493 150.66431 1124 ft 121 kts 238°
2026-04-16 11:26 -34.80977 150.65738 1116 ft 103 kts 231°
2026-04-16 11:26 -34.81747 150.65205 1099 ft 145 kts 211°
2026-04-16 11:26 -34.82765 150.64817 1068 ft 151 kts 200°
2026-04-16 11:27 -34.83685 150.64520 1059 ft 125 kts 200°
2026-04-16 11:27 -34.84521 150.64278 981 ft 123 kts 201°
2026-04-16 11:27 -34.85370 150.64016 677 ft 125 kts 200°
2026-04-16 11:27 -34.86227 150.63719 715 ft 129 kts 201°
2026-04-16 11:28 -34.87094 150.63415 686 ft 130 kts 201°
2026-04-16 11:28 -34.87910 150.63120 792 ft 120 kts 202°
2026-04-16 11:28 -34.88654 150.62655 763 ft 125 kts 218°
2026-04-16 11:28 -34.89257 150.61859 786 ft 133 kts 236°
2026-04-16 11:29 -34.89748 150.60986 767 ft 111 kts 239°
2026-04-16 11:29 -34.90186 150.60295 778 ft 99 kts 234°
2026-04-16 11:29 -34.90764 150.59849 671 ft 102 kts 212°
2026-04-16 11:29 -34.91466 150.59688 761 ft 99 kts 194°
2026-04-16 11:30 -34.92134 150.59617 843 ft 94 kts 189°
2026-04-16 11:30 -34.92790 150.59587 808 ft 96 kts 186°
2026-04-16 11:30 -34.93448 150.59515 734 ft 95 kts 194°
2026-04-16 11:30 -34.93982 150.59014 639 ft 104 kts 229°
2026-04-16 11:31 -34.94283 150.58201 685 ft 105 kts 252°
2026-04-16 11:31 -34.94502 150.57328 678 ft 110 kts 257°
2026-04-16 11:31 -34.94714 150.56431 679 ft 115 kts 258°
2026-04-16 11:31 -34.94881 150.55512 610 ft 91 kts 263°
2026-04-16 11:32 -34.94912 150.54917 500 ft 57 kts 271°
2026-04-16 11:32 -34.94872 150.54393 432 ft 64 kts 279°
2026-04-16 11:32 -34.94755 150.53828 469 ft 72 kts 287°
2026-04-16 11:32 -34.94653 150.53399 400 ft 29 kts 290°
2026-04-16 11:33 -34.94632 150.53325 373 ft 0 kts 294°